DW6366 Weather Reports


Display with metric or nautical units.
time (UTC)temp
F
wind
direction
speed
MPH
gust
MPH
rain 1hr
in
rain 24hr
in
rain mn
in
humidity
%
barometer
mb
20260504050416 54 135 0.0 0.0 0.00 1.26 0.01 95 1011.8
20260504045337 53 134 0.0 0.0 0.00 1.26 0.01 95 1011.6
20260504044328 53 134 0.0 0.0 0.00 1.26 0.01 95 1011.6
20260504043339 53 134 0.0 0.0 0.00 1.26 0.01 95 1011.6
20260504042347 53 135 0.0 0.0 0.00 1.26 0.01 95 1011.6
20260504041337 53 149 0.0 0.0 0.00 1.26 0.01 95 1011.6
20260504040342 53 150 0.0 0.0 0.00 1.26 0.01 95 1011.7
20260504035332 52 150 0.0 0.0 0.00 1.30 0.01 95 1011.7
20260504034340 52 150 0.0 0.0 0.00 1.30 0.01 95 1011.7
20260504033325 52 150 0.0 0.0 0.00 1.30 0.01 95 1011.7
20260504032335 52 150 0.0 0.0 0.00 1.30 0.01 95 1011.8
20260504031338 52 150 0.0 2.0 0.00 1.30 0.01 95 1011.8
20260504030334 51 150 0.0 2.0 0.00 1.30 0.01 95 1012.0
20260504025338 51 148 0.0 1.0 0.00 1.42 0.01 95 1011.9
20260504024328 51 151 0.0 1.0 0.00 1.42 0.01 94 1011.7
20260504023323 51 152 0.0 0.0 0.00 1.42 0.01 94 1011.7
20260504022334 51 152 0.0 0.0 0.00 1.42 0.01 94 1011.7
20260504021329 51 152 0.0 0.0 0.00 1.42 0.01 94 1011.6
20260504020321 51 152 0.0 0.0 0.04 1.42 0.01 94 1011.6
20260504015334 51 152 0.0 0.0 0.04 1.46 0.01 94 1011.6
20260504014323 52 152 0.0 0.0 0.04 1.46 0.01 94 1011.5
20260504013334 52 152 0.0 0.0 0.04 1.46 0.01 94 1011.6
20260504012343 52 152 0.0 0.0 0.04 1.46 0.01 94 1011.6
20260504011339 53 152 0.0 0.0 0.04 1.46 0.01 94 1011.5
20260504010354 53 152 0.0 0.0 0.00 1.42 0.00 94 1011.4
20260504005335 53 152 0.0 0.0 0.00 1.42 0.00 94 1011.4
20260504004326 53 152 0.0 0.0 0.00 1.42 0.00 94 1011.5
20260504003335 53 152 0.0 0.0 0.00 1.42 0.00 94 1011.4
20260504002347 54 152 0.0 0.0 0.00 1.42 0.00 94 1011.4
20260504001332 54 152 0.0 0.0 0.00 1.42 0.00 94 1011.3
20260504000324 54 152 0.0 0.0 0.00 1.42 0.00 94 1011.5
20260503235317 55 152 0.0 0.0 0.00 1.42 0.00 94 1011.6
20260503234329 55 152 0.0 0.0 0.00 1.42 0.00 94 1011.6
20260503233329 55 152 0.0 1.0 0.00 1.42 0.00 94 1011.6
20260503232413 55 151 0.0 2.0 0.00 1.42 0.00 94 1011.6
20260503231352 55 141 2.0 3.0 0.00 1.42 0.00 94 1011.6
20260503230340 55 179 0.0 3.0 0.00 1.42 0.00 94 1011.7
20260503225330 54 197 0.0 0.0 0.00 1.42 0.00 94 1011.7
20260503224340 54 198 0.0 0.0 0.00 1.42 0.00 93 1011.6
20260503223332 54 213 0.0 2.0 0.00 1.42 0.00 94 1011.5
20260503222328 55 213 0.0 0.0 0.00 1.42 0.00 94 1011.6
20260503221338 55 213 0.0 0.0 0.00 1.42 0.00 93 1011.6
20260503220330 55 213 0.0 0.0 0.00 1.42 0.00 93 1011.7
20260503215341 55 213 0.0 1.0 0.00 2.13 0.28 93 1011.6
20260503214334 56 213 0.0 1.0 0.00 2.13 0.28 93 1011.4
20260503213322 56 213 0.0 3.0 0.00 2.13 0.28 93 1011.4
20260503212335 56 190 2.0 4.0 0.00 2.13 0.28 93 1011.6
20260503211327 56 226 1.0 3.0 0.00 2.13 0.28 93 1011.6
20260503210359 56 232 1.0 2.0 0.00 2.13 0.28 93 1011.4
20260503205331 57 233 0.0 2.0 0.00 2.52 0.28 93 1011.3
20260503204339 57 225 1.0 3.0 0.00 2.52 0.28 93 1011.3
20260503203331 57 198 2.0 4.0 0.00 2.52 0.28 93 1011.3
20260503202335 57 192 3.0 4.0 0.00 2.52 0.28 93 1011.6
20260503201348 57 130 2.0 4.0 0.00 2.52 0.28 93 1011.4
20260503200327 57 175 2.0 4.0 0.00 2.52 0.28 93 1011.3
20260503195330 58 140 2.0 4.0 0.00 2.52 0.28 93 1011.2
20260503194345 58 180 2.0 3.0 0.00 2.52 0.28 93 1011.2
20260503193357 58 136 1.0 3.0 0.00 2.52 0.28 92 1011.0
20260503192333 58 203 1.0 3.0 0.04 2.52 0.28 92 1011.0
20260503191323 58 173 1.0 3.0 0.08 2.52 0.28 92 1010.8
20260503190338 58 136 0.0 4.0 0.12 2.52 0.28 92 1010.7
20260503185324 58 150 0.0 0.0 0.20 2.52 0.28 92 1010.6
20260503184336 58 149 0.0 0.0 0.35 2.52 0.28 92 1010.3
20260503183328 59 149 1.0 3.0 0.35 2.52 0.28 92 1010.3
20260503182338 59 164 2.0 5.0 0.31 2.48 0.28 91 1010.4
20260503181350 60 213 2.0 5.0 0.28 2.44 0.27 91 1010.4
20260503180332 60 179 2.0 5.0 0.24 2.40 0.26 91 1010.3
20260503175348 60 176 2.0 4.0 0.16 2.32 0.24 91 1010.2
20260503174331 0 0.0 0.0 0.00 2.17 0.21 1010.2
20260503173352 0 0.0 0.0 0.00 2.17 0.21 1010.2
20260503172323 0 0.0 0.0 0.04 2.17 0.21 1010.0
20260503171329 0 0.0 0.0 0.08 2.17 0.21 1009.8
20260503170323 61 208 2.0 6.0 0.08 2.17 0.21 90 1009.8
20260503150321 63 235 2.0 5.0 0.04 2.09 0.20 92 1010.0
20260503131324 61 203 1.0 4.0 0.00 1.85 0.15 93 1010.4
20260503130335 61 203 3.0 6.0 0.00 1.85 0.15 93 1010.5
20260503110323 61 203 2.0 5.0 0.20 1.77 0.13 93 1010.8
20260503090320 61 234 2.0 10.0 0.00 1.30 0.04 93 1010.7
20260503081334 61 283 2.0 4.0 0.00 1.30 0.04 94 1010.5
20260503080324 61 221 1.0 5.0 0.00 1.30 0.04 95 1010.6
20260503072343 60 191 1.0 5.0 0.00 1.30 0.04 95 1010.4
20260503071322 60 244 1.0 5.0 0.00 1.30 0.04 95 1010.4
20260503070344 60 171 1.0 4.0 0.00 1.30 0.04 95 1010.2